TimePDT,TemperatureF,Dew PointF,Humidity,Sea Level PressureIn,VisibilityMPH,Wind Direction,Wind SpeedMPH,Gust SpeedMPH,PrecipitationIn,Events,Conditions,WindDirDegrees,DateUTC
12:00 AM,48.2,35.6,62,30.06,9.0,NW,5.8,-,N/A,,Partly Cloudy,310,2013-06-13 07:00:00
1:00 AM,46.4,37.4,71,30.08,9.0,Calm,Calm,-,N/A,,Mostly Cloudy,0,2013-06-13 08:00:00
2:00 AM,46,38,64,30.08,9,WNW,2.3,,,,,300,2013-06-13 09:00:00
2:00 AM,46.4,37.4,71,30.08,9.0,WNW,2.3,-,N/A,,Mostly Cloudy,300,2013-06-13 09:00:00
3:00 AM,46.4,39.2,76,30.08,9.0,Calm,Calm,-,N/A,,Partly Cloudy,0,2013-06-13 10:00:00
4:00 AM,42.8,35.6,76,30.08,9.0,WNW,5.8,-,N/A,,Overcast,300,2013-06-13 11:00:00
5:00 AM,40,35,76,30.10,9,WSW,3.5,,,,,240,2013-06-13 12:00:00
5:00 AM,39.2,35.6,87,30.10,9.0,WSW,3.5,-,N/A,,Scattered Clouds,240,2013-06-13 12:00:00
6:00 AM,41.0,35.6,81,30.10,9.0,Calm,Calm,-,N/A,,Clear,0,2013-06-13 13:00:00
7:00 AM,48.2,41.0,76,30.08,9.0,SE,2.3,-,N/A,,Clear,130,2013-06-13 14:00:00
8:00 AM,51,40,56,30.09,9,East,2.3,,,,,90,2013-06-13 15:00:00
8:00 AM,51.8,39.2,62,30.09,9.0,Calm,Calm,-,N/A,,Clear,0,2013-06-13 15:00:00
9:00 AM,53.6,39.2,58,30.09,9.0,NNE,5.8,-,N/A,,Clear,20,2013-06-13 16:00:00
10:00 AM,55.4,37.4,51,30.06,9.0,NE,3.5,-,N/A,,Mostly Cloudy,40,2013-06-13 17:00:00
10:28 AM,51.8,37.4,58,30.06,9.0,West,12.7,24.2,N/A,Rain,Light Rain,270,2013-06-13 17:28:00
10:39 AM,48.2,42.8,82,30.06,2.1,West,9.2,-,N/A,Rain,Light Rain,260,2013-06-13 17:39:00
10:57 AM,48.2,44.6,87,30.05,9.0,West,4.6,-,N/A,Rain,Light Rain,260,2013-06-13 17:57:00
11:00 AM,48,45,84,30.08,9,West,5.8,,,,Unknown Precipitation,260,2013-06-13 18:00:00
11:00 AM,48.2,44.6,87,30.08,9.0,West,5.8,-,N/A,Rain,Light Rain,260,2013-06-13 18:00:00
11:03 AM,48.2,46.4,93,30.05,9.0,West,4.6,-,N/A,,Overcast,270,2013-06-13 18:03:00
12:00 PM,57.2,44.6,63,30.05,9.0,West,5.8,-,N/A,,Partly Cloudy,260,2013-06-13 19:00:00
1:00 PM,57.2,39.2,51,30.05,9.0,South,6.9,-,N/A,,Mostly Cloudy,170,2013-06-13 20:00:00
1:05 PM,57.2,41.0,55,30.03,9.0,West,5.8,-,N/A,Rain,Rain,280,2013-06-13 20:05:00
1:38 PM,57.2,46.4,67,30.03,9.0,SW,9.2,-,N/A,,Mostly Cloudy,230,2013-06-13 20:38:00
2:00 PM,58,41,43,30.05,9,SW,9.2,,,,,220,2013-06-13 21:00:00
2:00 PM,59.0,41.0,51,30.05,9.0,SW,8.1,-,N/A,,Scattered Clouds,230,2013-06-13 21:00:00
2:42 PM,59.0,39.2,48,30.02,9.0,WSW,8.1,-,N/A,Rain,Light Rain,240,2013-06-13 21:42:00
2:51 PM,57.2,42.8,59,30.03,9.0,West,10.4,18.4,N/A,Rain,Light Rain,270,2013-06-13 21:51:00
3:00 PM,53.6,44.6,72,30.06,8.0,West,6.9,17.3,N/A,Rain,Light Rain,260,2013-06-13 22:00:00
3:11 PM,57.2,44.6,63,30.03,9.0,West,8.1,-,N/A,,Mostly Cloudy,270,2013-06-13 22:11:00
3:23 PM,55.4,44.6,67,30.04,9.0,West,11.5,17.3,N/A,Rain,Light Rain,280,2013-06-13 22:23:00
3:31 PM,51.8,42.8,71,30.04,7.0,North,5.8,17.3,N/A,Rain,Light Rain,350,2013-06-13 22:31:00
3:46 PM,51.8,48.2,88,30.04,9.0,NW,2.3,-,N/A,Rain,Light Rain,320,2013-06-13 22:46:00
3:50 PM,53.6,48.2,82,30.04,9.0,ENE,2.3,-,N/A,,Overcast,70,2013-06-13 22:50:00
3:59 PM,53.6,44.6,72,30.04,9.0,Calm,Calm,-,N/A,Rain,Light Rain,0,2013-06-13 22:59:00
4:00 PM,53.6,46.4,77,30.07,9.0,SSE,2.3,-,N/A,Rain,Light Rain,150,2013-06-13 23:00:00
4:15 PM,53.6,42.8,67,30.04,9.0,NNW,2.3,-,N/A,,Overcast,340,2013-06-13 23:15:00
4:20 PM,53.6,42.8,67,30.04,9.0,NNW,4.6,-,N/A,Rain,Light Rain,340,2013-06-13 23:20:00
4:38 PM,53.6,42.8,67,30.04,9.0,West,5.8,-,N/A,,Overcast,280,2013-06-13 23:38:00
5:00 PM,54,43,55,30.08,9,NW,3.5,,,,,310,2013-06-14 00:00:00
5:00 PM,53.6,42.8,67,30.08,9.0,NW,3.5,-,N/A,,Mostly Cloudy,310,2013-06-14 00:00:00
5:02 PM,53.6,42.8,67,30.04,9.0,WNW,3.5,-,N/A,Rain,Light Rain,290,2013-06-14 00:02:00
5:26 PM,55.4,44.6,67,30.03,9.0,West,3.5,-,N/A,,Overcast,260,2013-06-14 00:26:00
6:00 PM,57.2,42.8,59,30.06,9.0,SSW,3.5,-,N/A,,Overcast,210,2013-06-14 01:00:00
6:38 PM,55.4,44.6,67,30.03,9.0,West,4.6,-,N/A,Rain,Light Rain,260,2013-06-14 01:38:00
7:00 PM,53.6,42.8,67,30.06,9.0,WNW,9.2,-,N/A,Rain,Light Rain,290,2013-06-14 02:00:00
8:00 PM,48,46,90,30.08,9,WSW,5.8,,,Rain,Light Rain,240,2013-06-14 03:00:00
8:00 PM,48.2,46.4,93,30.08,9.0,WSW,5.8,-,N/A,Rain,Light Rain,250,2013-06-14 03:00:00
8:16 PM,48.2,44.6,87,30.05,9.0,WSW,5.8,-,N/A,,Mostly Cloudy,250,2013-06-14 03:16:00
8:26 PM,48.2,44.6,87,30.05,9.0,WSW,8.1,-,N/A,Rain,Light Rain,250,2013-06-14 03:26:00
8:39 PM,48.2,44.6,87,30.05,9.0,WSW,6.9,-,N/A,,Scattered Clouds,250,2013-06-14 03:39:00
9:00 PM,46.4,44.6,93,30.08,9.0,SW,4.6,-,N/A,,Scattered Clouds,230,2013-06-14 04:00:00
9:27 PM,48.2,42.8,82,30.06,9.0,WSW,5.8,-,N/A,Rain,Light Rain,240,2013-06-14 04:27:00
9:46 PM,46.4,42.8,87,30.05,9.0,SW,6.9,-,N/A,,Overcast,230,2013-06-14 04:46:00
10:00 PM,48.2,42.8,82,30.08,9.0,SW,4.6,-,N/A,,Mostly Cloudy,230,2013-06-14 05:00:00
10:39 PM,48.2,42.8,82,30.08,9.0,WNW,6.9,-,N/A,Rain,Light Rain,290,2013-06-14 05:39:00
10:46 PM,46.4,42.8,87,30.08,2.2,WNW,3.5,-,N/A,Rain,Light Rain,300,2013-06-14 05:46:00
11:00 PM,46,44,90,30.12,3,West,2.3,,,,Unknown Precipitation,280,2013-06-14 06:00:00
11:00 PM,46.4,44.6,93,30.12,3.5,West,3.5,-,N/A,Rain,Rain,280,2013-06-14 06:00:00
11:47 PM,44.6,44.6,100,30.06,9.0,WSW,4.6,-,N/A,,Mostly Cloudy,240,2013-06-14 06:47:00